Location: Alpine Heights
(32.8181°N, 116.7809°W)
Time: 00:30:43
(UTC+00:00)

Lacrosse 5 rocket - Pass Details

Date: 14 April 2021
Orbit: 460 x 634 km, 57.0° (Epoch: 15 May)

Event Time Altitude Azimuth Distance (km) Brightness Sun altitude
Exits shadow 12:21:10 12° 214° (SSW) 1,892 3.6 -12.4°
Drops below altitude 10° 12:21:43 10° 207° (SSW) 2,004 3.7 -12.2°
Sets 12:24:52 0° 185° (S) 2,896 4.8 -11.6°
